Idaho Falls, ID

2:46 AM MST on December 07, 2016 (GMT -0700)
Fanning

Weather History for KIDA - December, 2012

Change the Weather History Date:

Wednesday, December 5, 2012

  Actual Average Record
Temperature  
Mean Temperature 43 °F 23 °F  
Max Temperature 48 °F 32 °F 49 °F (1965)
Min Temperature 38 °F 14 °F -31 °F (1972)
Degree Days  
Heating Degree Days 22 42  
Month to date heating degree days 122 206  
Since 1 July heating degree days 1696 2109  
Cooling Degree Days 0 0  
Month to date cooling degree days 0 0  
Year to date cooling degree days 444 264  
Moisture  
Dew Point 39 °F    
Average Humidity 81    
Maximum Humidity 86    
Minimum Humidity 76    
Precipitation  
Precipitation 0.03 in 0.03 in 0.28 in (1966)
Month to date precipitation 0.44 0.16  
Year to date precipitation 6.81 9.68  
Sea Level Pressure  
Sea Level Pressure 30.03 in    
Wind  
Wind Speed 19 mph (SSW)    
Max Wind Speed 30 mph    
Max Gust Speed 38 mph    
Visibility 9 miles    
Events Rain    
T = Trace of Precipitation, MM = Missing Value Source: NWS Daily Summary

Daily Weather History Graph

Daily Weather History Graph

Search for Another Location

Airport or City:

Trip Planner

Search our weather history database for the weather conditions in past years. The results will help you decide how hot, cold, wet, or windy it might be!

Date:

Astronomy

Dec. 05, 2012 Rise Set
Actual Time 7:46 AM MST 4:52 PM MST
Civil Twilight 7:13 AM MST 5:24 PM MST
Nautical Twilight 6:37 AM MST 6:00 PM MST
Astronomical Twilight 6:03 AM MST 6:34 PM MST
Moon 11:54 PM MST (12/5) 12:03 PM MST (12/5)
Length of Visible Light 10h 10m
Length of Day
9h 05m
Waning Gibbous, 59% of the Moon is Illuminated
Dec 5
Waning Gibbous
Dec 6
Last Quarter
Dec 13
New
Dec 19
First Quarter
Dec 28
Full

Hourly Weather History & Observations

Time (MST) Temp. Windchill Dew Point Humidity Pressure Visibility Wind Dir Wind Speed Gust Speed Precip Events Conditions
12:53 AM 44.1 °F 36.5 °F 39.9 °F 85% 30.12 in 10.0 mi South 17.3 mph 25.3 mph 0.00 in Rain Light Rain
1:02 AM 44.6 °F 37.2 °F 39.2 °F 81% 30.11 in 10.0 mi South 17.3 mph - 0.00 in   Overcast
1:09 AM 44.6 °F 37.2 °F 39.2 °F 81% 30.10 in 10.0 mi South 17.3 mph - 0.00 in   Overcast
1:53 AM 44.1 °F 36.8 °F 39.9 °F 85% 30.09 in 6.0 mi South 16.1 mph - 0.00 in Rain Light Rain
2:53 AM 45.0 °F 37.9 °F 39.9 °F 82% 30.08 in 10.0 mi South 16.1 mph 23.0 mph 0.00 in   Overcast
3:53 AM 45.0 °F 38.5 °F 39.9 °F 82% 30.05 in 10.0 mi SSW 13.8 mph 21.9 mph 0.01 in   Overcast
4:05 AM 46.4 °F 40.1 °F 39.2 °F 76% 30.05 in 10.0 mi SSW 15.0 mph 23.0 mph N/A   Overcast
4:17 AM 46.4 °F 40.1 °F 39.2 °F 76% 30.05 in 10.0 mi South 15.0 mph 24.2 mph N/A   Overcast
4:53 AM 46.0 °F 39.6 °F 41.0 °F 83% 30.03 in 10.0 mi South 15.0 mph - N/A   Overcast
5:53 AM 46.0 °F 39.6 °F 41.0 °F 83% 30.01 in 10.0 mi SSW 15.0 mph - 0.00 in   Overcast
7:53 AM 45.0 °F 37.1 °F 39.9 °F 82% 30.01 in 5.0 mi SSW 19.6 mph - 0.01 in Rain Light Rain
7:54 AM 44.6 °F 36.4 °F 39.2 °F 81% 30.02 in 2.0 mi SSW 20.7 mph - 0.00 in Rain Light Rain
8:15 AM 44.6 °F 37.4 °F 41.0 °F 87% 30.02 in 5.0 mi SSW 16.1 mph 25.3 mph 0.01 in Rain Light Rain
8:53 AM 45.0 °F 36.9 °F 41.0 °F 86% 30.01 in 4.0 mi SSW 20.7 mph - 0.01 in Rain Light Rain
9:53 AM 45.0 °F 35.6 °F 41.0 °F 86% 30.01 in 9.0 mi SSW 27.6 mph 34.5 mph 0.00 in   Overcast
10:53 AM 46.0 °F 37.2 °F 41.0 °F 83% 30.00 in 9.0 mi SW 26.5 mph 35.7 mph N/A   Overcast
11:53 AM 46.0 °F 37.2 °F 41.0 °F 83% 30.00 in 10.0 mi SSW 26.5 mph 32.2 mph N/A   Overcast
12:53 PM 45.0 °F 36.0 °F 41.0 °F 86% 29.99 in 6.0 mi SSW 25.3 mph 31.1 mph 0.00 in Rain Light Rain
1:53 PM 46.0 °F 38.3 °F 42.1 °F 86% 29.98 in 10.0 mi SW 20.7 mph 29.9 mph 0.00 in   Overcast
2:53 PM 46.9 °F - 42.1 °F 83% 29.96 in 10.0 mi SSW 27.6 mph 34.5 mph N/A   Overcast
3:53 PM 48.0 °F - 41.0 °F 77% 29.98 in 10.0 mi SW 19.6 mph 29.9 mph N/A   Overcast
4:53 PM 46.0 °F 38.3 °F 39.0 °F 76% 30.00 in 10.0 mi SSW 20.7 mph - N/A   Scattered Clouds
5:53 PM 44.1 °F 37.4 °F 39.0 °F 82% 30.00 in 10.0 mi South 13.8 mph - N/A   Clear
6:53 PM 44.1 °F 35.7 °F 37.9 °F 79% 30.01 in 10.0 mi SSW 20.7 mph 26.5 mph N/A   Clear
7:53 PM 43.0 °F 36.8 °F 37.9 °F 82% 30.03 in 10.0 mi SW 11.5 mph - N/A   Overcast
8:16 PM 42.8 °F 35.8 °F 37.4 °F 81% 30.04 in 10.0 mi SSW 13.8 mph 20.7 mph N/A   Partly Cloudy
8:53 PM 41.0 °F 32.5 °F 37.0 °F 86% 30.04 in 10.0 mi SW 17.3 mph - N/A   Clear
9:53 PM 39.9 °F 32.1 °F 36.0 °F 86% 30.04 in 10.0 mi SSW 13.8 mph - N/A   Clear
10:53 PM 39.9 °F 32.5 °F 36.0 °F 86% 30.04 in 10.0 mi SW 12.7 mph - N/A   Scattered Clouds
11:53 PM 37.9 °F 29.6 °F 35.1 °F 89% 30.05 in 10.0 mi SW 13.8 mph - N/A   Clear